Notices

What's New in latest Release from April 7th, 2021:

- Updated Glossary, including Speed of Maximum Gust, and Total Hourly Precipitation

- Updated national and regional climate services offices contacts and prices information

- Addition of station inventory lists for 1981-2010, 1971-2000, and 1961-1990 Normals.

If you haven't already, please take our survey and provide feedback about our website: https://eccc.sondage-survey.ca/f/LanguageSelection.aspx?s=442ca660-fcf1-47c0-95a9-59707d6fd709

Hourly Data Report for March 07, 2004

SHERBROOKE A
QUEBEC

45°26'00.000" N
71°41'00.000" W
241.40 m
7028124
71610
YSC

Download Data

Hourly Data (March 2004)
Hourly Data Report for March 7, 2004
TIME
LST
Temp Definition
°C
Dew Point Definition
°C
Rel Hum Definition
%
Precip. Amount Definition
mm

Wind Dir Definition
10's deg

Wind Spd Definition
km/h
Visibility Definition
km
Stn Press Definition
kPa
Hmdx Definition


Wind Chill Definition


Weather Definition


00:00 -3.8 -10.2 61   29 26 15.0 97.66   -11  
01:00 -3.6 -11.1 56   28 28 15.0 97.78   -11 Snow
02:00 -3.9 -11.2 57   28 22 15.0 97.88   -10 Snow
03:00 -3.9 -11.3 56   29 28 15.0 97.94   -11 Snow
04:00 -4.1 -11.7 55   29 28 15.0 98.02   -12 Snow
05:00 -4.4 -11.9 56   30 22 15.0 98.07   -11 Snow
06:00 -4.8 -12.3 56   30 17 15.0 98.14   -11  
07:00 -5.2 -12.5 56   29 26 15.0 98.20   -13 Snow
08:00 -5.1 -12.7 55   30 15 24.1 98.23   -11 Snow Showers
09:00 -4.9 -12.6 55   29 17 24.1 98.26   -11 Mainly Clear
10:00 -3.9 -12.0 53   28 24 24.1 98.28   -11 Mainly Clear
11:00 -2.8 -12.2 48   30 22 24.1 98.27   -9 Mainly Clear
12:00 -2.5 -11.3 51   27 20 24.1 98.30   -8 Snow Showers
13:00 -1.8 -11.4 48   28 17 24.1 98.23   -7 Mainly Clear
14:00 -0.9 -11.6 44   26 7 24.1 98.16   -3 Mainly Clear
15:00 -0.7 -11.6 43   26 11 24.1 98.11   -4 Clear
16:00 0.2 -11.6 41   28 4 24.1 98.12     Clear
17:00 -1.2 -12.1 43   30 6 24.1 98.16   -3 Mainly Clear
18:00 -2.1 -12.4 45   34 4 15.0 98.19   -4  
19:00 -2.9 -12.3 48   5 7 15.0 98.19   -6  
20:00 -3.3 -12.5 49   8 4 15.0 98.23   -5  
21:00 -4.1 -12.5 52   9 6 15.0 98.25   -7  
22:00 -4.7 -12.5 54   8 7 15.0 98.27   -8  
23:00 -4.9 -12.4 56   7 11 15.0 98.19   -9  

Notes on Data Quality.

Legend

  • E = Estimated
  • M = Missing
  • NA = Not Available*
  • [empty] = Indicates an unobserved value
Date modified: